• MPC Preparation (Info)

  • MPEC 2019-V188 : 2019 VP5

    The following Minor Planet Electronic Circular may be linked-to from your own Web pages, but must not otherwise be redistributed electronically.

    A form allowing access to any MPEC is at the bottom of this page.


    Read MPEC 2019-V187 Read MPEC 2019-V189


    M.P.E.C. 2019-V188                            Issued 2019 November 14, 17:27 UT
    
         The Minor Planet Electronic Circulars contain information on unusual
             minor planets and routine data on comets.  They are published
        on behalf of Division F of the International Astronomical Union by the
              Minor Planet Center, Smithsonian Astrophysical Observatory,
                              Cambridge, MA 02138, U.S.A.
    
                 Prepared using the Tamkin Foundation Computer Network
    
                                  MPC@CFA.HARVARD.EDU
                URL https://www.minorplanetcenter.net/    ISSN 1523-6714
    
                                    2019 VP5                                 
    
    
    Observations:
         K19V05P  C2019 11 11.43543703 37 43.071-40 34 00.35         19.6 GVEV188F51
         K19V05P  C2019 11 11.43620703 37 42.895-40 33 58.97         20.0 GVEV188F51
         K19V05P  C2019 11 11.44496403 37 40.803-40 33 44.07         19.7 GVEV188F51
         K19V05P  C2019 11 11.44573203 37 40.615-40 33 42.40         19.8 GVEV188F51
         K19V05P  C2019 11 11.45446403 37 38.526-40 33 27.31         20.0 GVEV188F51
         K19V05P  C2019 11 11.45523403 37 38.351-40 33 26.02         20.1 GVEV188F51
         K19V05P  C2019 11 11.46268503 37 36.559-40 33 13.40         20.1 GVEV188F51
         K19V05P  C2019 11 11.46345203 37 36.413-40 33 11.52         20.2 GVEV188F51
         K19V05P* C2019 11 12.42275803 33 52.809-40 04 01.14         19.71iUEV188F51
         K19V05P  C2019 11 12.43173003 33 50.585-40 03 44.18         19.55iUEV188F51
         K19V05P  C2019 11 12.44071403 33 48.355-40 03 26.85         19.38iUEV188F51
         K19V05P  C2019 11 12.44972603 33 46.128-40 03 09.38         19.71iUEV188F51
         K19V05P  C2019 11 13.42423403 29 50.677-39 30 30.34         19.9 GVEV188F51
         K19V05P  C2019 11 13.43320603 29 48.365-39 30 11.47         20.5 GVEV188F51
         K19V05P  C2019 11 13.44216503 29 46.068-39 29 52.93         20.1 GVEV188F51
         K19V05P KC2019 11 13.99970 03 27 28.98 -39 09 23.5          19.6 VUEV188X31
         K19V05P KC2019 11 14.01356 03 27 25.49 -39 08 52.9          19.7 VUEV188X31
         K19V05P KC2019 11 14.02457 03 27 22.66 -39 08 28.7          20.3 VUEV188X31
         K19V05P KC2019 11 14.47685 03 25 27.93 -38 51 22.0          20.3 VqEV188E23
         K19V05P KC2019 11 14.50463 03 25 20.71 -38 50 18.3          19.4 VqEV188E23
         K19V05P KC2019 11 14.53945 03 25 11.55 -38 48 57.1          19.4 VqEV188E23
         K19V05P KC2019 11 14.56722 03 25 04.22 -38 47 52.5          20.0 VqEV188E23
    
    Observer details:
    E23 Arcadia.  Observer A. Hidas.  0.35-m f/1.9 reflector + CCD.
    F51 Pan-STARRS 1, Haleakala.  Observers J. Bulger, K. Chambers, T. Lowe, A. 
       Schultz, M. Willman.  Measurers S. Chastel, M. Huber, Y. Ramanjooloo, R. 
       Wainscoat, R. Weryk, K. Chambers, T. de Boer, L. Denneau, J. Fairlamb, H. 
       Flewelling, C.-C. Lin, E. Magnier.  1.8-m Ritchey-Chretien + CCD.
    X31 Galileo Galilei Observatory, Oro Verde.  Observer C. Fornari.  0.35-m f/11 
       Schmidt-Cassegrain + CCD.
    
    Orbital elements:
    2019 VP5                                                 Earth MOID = 0.1463 AU
    Epoch 2019 Apr. 27.0 TT = JDT 2458600.5                 Bell
    M 293.74451              (2000.0)            P               Q
    n   0.26240349     Peri.   25.39622     +0.04858110     -0.80790281
    a   2.4163303      Node    67.02209     +0.77252207     -0.34232900
    e   0.5456724      Incl.   39.63733     +0.63312679     +0.47969147
    P   3.76           H   19.9           G   0.15           U   8
    Residuals in seconds of arc
    191111 F51  0.2-  0.0     191112 F51  0.1-  0.0     191114 X31  0.1+  0.5+
    191111 F51  0.1-  0.1+    191112 F51  0.0   0.1-    191114 X31  0.0   0.8+
    191111 F51  0.0   0.2-    191112 F51  0.0   0.0     191114 E23  1.1-  0.5-
    191111 F51  0.1-  0.2+    191112 F51  0.1+  0.2+    191114 E23  0.0   0.4-
    191111 F51  0.0   0.1+    191113 F51  0.0   0.0     191114 E23  0.5+  0.4+
    191111 F51  0.1+  0.0     191113 F51  0.0   0.0     191114 E23  0.8+  0.3+
    191111 F51  0.0   0.4-    191113 F51  0.0   0.3-
    191111 F51  0.5+  0.2+    191113 X31  0.6-  0.1-
    
    Ephemeris:
    2019 VP5                 a,e,i = 2.42, 0.55, 40                  q = 1.0978
    Date    TT    R. A. (2000) Decl.     Delta      r    Elong.  Phase     V
    2019 10 15    04 33 23.3 -43 26 04   0.7361  1.4443   112.0    39.8    21.6
    ...
    2019 10 30    04 14 20.3 -43 42 46   0.5658  1.3453   116.6    41.3    20.9
    ...
    2019 11 07    03 53 15.1 -42 16 09   0.4781  1.2962   119.7    41.6    20.5
    ...
    2019 11 13    03 31 34.3 -39 44 49   0.4156  1.2616   122.3    41.5    20.1
    2019 11 14    03 27 27.8 -39 09 28   0.4056  1.2561   122.7    41.5    20.1
    2019 11 15    03 23 13.0 -38 30 38   0.3957  1.2506   123.2    41.4    20.0
    ...
    2019 11 21    02 55 04.1 -33 11 09   0.3406  1.2191   125.8    41.1    19.6
    ...
    2019 11 29    02 12 24.6 -21 07 00   0.2837  1.1817   127.7    41.3    19.1
    ...
    2019 12 14    00 53 26.7 +14 17 06   0.2672  1.1280   116.2    51.6    19.2
    
    A. U. Tomatic                (C) Copyright 2019 MPC           M.P.E.C. 2019-V188
    


    Read MPEC 2019-V187 Read MPEC 2019-V189


    MPEC number:

    Enter an MPEC number in one of the following forms:

    • 1997-B01 (the full form)
    • J97B01 (the packed version of the full form)
    • B01 (the abbreviated form)